SCP
0 0 0 0 1 1 1 0 0 0 2 3 2 1 1 0 1 1 0 0 0 0 0 0 0 0 0 0 0 0 0 0 0 0 0 0 0 0 0 0 0 0 0
1 1 1 1 1 0 0 2 6 5 2 1 1 1 1 0 0 0 0 0 0 0 0 0 0 0 0 0 0 0 0 0 0 0 0 0 0 0 0 0 0 0 0
2 1 1 2 2 2 1 5 2 2 3 1 0 0 0 0 0 0 0 0 0 0 0 0 0 0 0 0 0 0 0 0 0 0 0 0 0 0 0 0 0 0 0
3 3 3 1 1 6 8 4 2 1 1 1 0 0 0 0 0 0 0 0 0 0 0 0 0 0 0 0 0 0 0 0 0 0 0 0 0 0 0 0 0 0 0
3 2 2 3 4 4 3 2 2 1 1 0 0 0 0 0 0 0 0 0 0 0 0 0 0 0 0 0 0 0 0 0 0 0 0 0 0 0 0 0 0 0 0
0 0 2 3 5 2 2 2 1 0 0 0 0 0 0 0 0 0 0 0 0 0 0 0 0 0 0 0 0 0 0 0 0 0 0 0 0 0 0 0 0 0 0
0 0 0 4 7 5 3 1 0 0 0 0 0 0 0 0 0 0 0 0 0 0 0 0 0 0 0 0 0 0 0 0 0 0 0 0 0 0 0 0 0 0 0
0 0 1 3 7 7 4 2 0 0 0 0 0 0 0 0 0 0 0 0 0 0 0 0 0 0 0 0 0 0 0 0 0 0 0 0 0 0 0 0 0 0 0
0 0 1 1 2 5 4 0 0 0 0 0 0 0 0 0 0 0 0 0 0 0 0 0 0 0 0 0 0 0 0 0 0 0 0 0 0 0 0 0 0 0 0
1 2 3 5 7 6 4 1 1 0 0 0 0 0 0 0 0 0 0 0 0 0 0 0 0 0 0 0 0 0 0 0 0 0 0 0 0 0 0 0 0 0 0
2 4 5 6 4 4 1 0 0 0 0 0 0 0 0 0 0 0 0 0 0 0 0 0 0 0 0 0 0 0 0 0 0 0 0 0 0 0 0 0 0 0 0
6 7 6 5 3 3 1 0 0 0 0 0 0 0 0 0 0 0 0 0 0 0 0 0 0 0 0 0 0 0 0 0 0 0 0 0 0 0 0 0 0 0 0
2 2 2 1 1 1 0 0 0 0 0 0 0 0 0 0 0 0 0 0 0 0 0 0 0 0 0 0 0 0 0 0 0 0 0 0 0 0 0 0 0 0 0
0 0 0 0 0 0 0 0 0 0 0 0 0 0 0 0 0 0 0 0 0 0 0 0 0 0 0 0 0 0 0 0 0 0 0 0 0 0 0 0 0 0 0
0 0 0 0 0 0 0 0 0 0 0 0 0 0 0 0 0 0 0 0 0 0 0 0 0 0 0 0 0 0 0 0 0 0 0 0 0 0 0 0 0 0 0
0 0 0 0 0 0 0 0 0 0 0 0 0 0 0 0 0 0 0 0 0 0 0 0 0 0 0 0 0 0 0 0 0 0 -0 0 0 0 0 0 0 0 0
0 0 0 0 0 0 0 0 0 0 0 0 0 0 0 0 0 0 0 0 0 0 0 0 0 0 0 0 0 0 0 0 0 0 0 0 0 0 0 0 0 0 0
0 0 0 0 0 0 0 0 0 0 0 0 0 0 0 0 0 0 0 0 0 0 0 0 0 0 0 0 0 0 0 0 0 0 0 0 0 0 0 0 0 0 0
0 0 0 0 0 0 0 0 0 0 0 0 0 0 0 0 0 0 0 0 0 0 0 0 0 0 0 0 0 0 0 0 0 0 0 0 0 0 0 0 0 0 0
0 0 0 0 0 0 0 0 0 0 0 0 0 0 0 0 0 0 0 0 0 0 0 0 0 0 0 0 0 0 0 0 0 0 0 0 0 0 0 0 0 0 0
0 0 0 0 0 0 0 0 0 0 0 0 0 0 0 0 0 0 0 0 0 0 0 0 0 0 0 0 0 0 0 0 0 0 0 0 0 0 0 0 0 0 0
0 0 0 0 0 0 0 0 0 0 0 0 0 0 0 0 0 0 0 0 0 0 0 0 0 0 0 0 0 0 0 0 0 0 0 0 0 0 0 0 0 0 0
0 0 0 0 0 0 0 0 0 0 0 0 0 0 0 0 0 0 0 0 0 0 0 0 0 0 0 0 0 0 0 0 0 0 0 0 0 0 0 0 0 0 0
0 0 0 0 0 0 0 0 0 0 0 0 0 0 0 0 0 0 0 0 0 0 0 0 0 0 0 0 -0 -0 -0 -0 0 0 0 0 0 0 0 0 -0 0 -0
0 0 0 0 0 0 0 0 0 0 0 0 0 0 0 0 0 0 0 0 0 0 -0 -0 -0 0 0 -0 -0 0 0 0 -0 -0 -0 0 0 -0 0 0 -0 -0 -0
0 0 0 0 0 0 -0 0 0 0 0 0 0 0 0 0 0 0 0 0 -0 -0 0 0 0 0 0 0 -0 0 0 0 0 0 0 0 -0 0 0 -0 -0 -0 -0
Wind_Speed_500mb
33 32 34 36 35 36 42 35 36 40 56 55 54 60 54 52 66 56 34 41 47 45 53 57 52 51 47 44 41 43 47 49 51 48 47 39 36 33 29 29 28 28 29
27 31 35 38 39 41 40 44 50 53 43 47 59 61 59 56 48 55 62 47 54 55 63 52 51 50 49 38 34 36 41 43 46 46 48 43 40 39 37 34 35 35 35
29 37 47 48 45 46 46 62 61 54 61 61 76 55 62 61 84 84 81 75 53 58 50 45 48 48 48 37 33 31 32 39 43 46 43 47 49 48 45 43 43 41 41
43 46 50 54 54 55 58 70 70 73 73 69 96 80 85 90 107 102 89 83 75 62 46 48 48 49 41 45 36 32 41 40 40 48 49 43 43 46 47 44 42 43 44
39 46 55 59 57 63 70 68 82 76 80 79 89 92 110 121 98 66 56 60 64 51 44 44 47 43 43 35 24 28 39 43 46 47 44 47 46 43 39 43 39 45 44
23 53 65 67 67 74 76 76 77 82 83 90 98 92 96 82 64 44 46 41 41 45 37 37 46 41 36 34 28 23 27 39 46 48 46 45 43 39 40 42 48 51 51
73 67 59 63 74 76 83 84 85 95 83 81 75 91 80 63 48 52 46 47 43 37 27 41 42 45 38 33 25 24 32 32 32 41 47 52 49 49 51 51 50 53 55
82 88 55 63 70 70 86 99 98 95 82 68 67 43 34 29 30 24 28 30 29 27 35 39 34 38 33 35 21 29 40 43 41 39 36 45 43 44 50 40 43 50 56
85 65 58 58 78 82 86 91 100 98 82 71 42 33 11 16 16 14 14 22 25 33 34 31 39 39 39 46 50 49 41 37 41 41 34 33 43 48 40 37 42 48 55
53 45 45 52 60 65 74 72 75 85 77 56 45 36 51 38 18 16 14 24 30 41 43 38 32 29 36 47 48 49 33 45 37 44 37 49 52 47 42 41 41 48 45
41 40 42 47 56 60 62 64 73 74 67 65 49 36 34 35 27 29 31 26 20 30 36 36 39 41 33 37 45 50 52 52 50 54 58 56 57 55 46 45 41 42 44
25 29 33 45 45 53 56 56 73 69 56 62 45 39 53 32 19 27 34 36 29 26 28 34 34 37 36 40 39 49 44 48 51 46 49 53 54 53 53 47 42 46 49
35 39 40 36 35 38 35 50 45 39 25 8 18 18 18 26 26 30 34 39 40 32 30 34 37 30 26 35 43 33 41 52 45 41 49 51 48 53 59 54 52 47 47
36 34 27 23 21 25 31 34 32 10 15 10 14 13 26 30 20 21 26 28 36 44 42 45 31 32 27 28 38 35 36 46 51 40 42 53 66 63 56 55 56 56 49
35 32 23 12 6 4 7 12 4 1 2 2 7 13 16 13 22 28 36 36 36 47 36 36 42 44 46 46 34 28 30 42 46 44 67 77 81 61 57 54 59 56 45
26 17 13 14 12 11 6 7 8 5 8 8 7 14 21 26 33 34 29 32 33 33 33 40 48 52 46 53 62 71 70 74 81 86 80 64 65 64 60 54 58 56 45
14 10 9 8 8 5 6 4 3 6 11 15 18 22 26 26 29 31 30 40 46 52 53 52 43 36 47 55 61 70 73 64 67 66 68 73 70 68 67 67 60 49 46
13 12 14 16 15 15 17 18 16 11 12 16 21 24 23 22 29 35 38 37 37 35 38 48 59 62 64 65 63 66 69 71 73 71 58 46 44 48 48 39 41 45 40
12 7 6 4 4 7 7 5 7 7 6 11 22 30 34 35 40 44 42 47 50 55 59 63 59 46 59 51 45 44 41 37 37 35 37 32 26 20 23 24 28 30 32
11 9 8 6 9 10 13 16 20 22 21 19 28 34 40 40 43 46 47 52 54 60 63 57 48 45 41 47 45 43 45 40 37 27 25 31 27 24 21 23 20 22 24
15 13 10 16 16 14 19 19 20 23 24 20 29 35 40 42 47 52 49 49 49 45 40 39 43 43 44 45 43 41 38 39 24 19 10 13 15 18 18 19 24 22 20
20 16 20 16 13 19 20 26 29 30 27 26 32 34 32 33 43 45 43 36 34 39 39 34 34 36 38 37 35 36 33 33 24 2 6 8 18 19 14 21 10 16 19
29 15 10 6 18 28 28 35 35 34 29 32 36 41 42 45 39 33 38 23 31 34 30 29 29 33 38 36 38 33 33 26 30 17 18 17 17 12 14 8 12 15 13
30 25 8 13 26 30 35 43 32 17 22 26 33 35 28 33 36 43 32 18 28 23 24 24 29 31 32 34 28 24 29 29 24 14 8 18 10 9 13 10 8 13 20
28 31 22 19 26 31 36 52 19 15 19 19 25 26 25 34 38 30 21 20 21 21 19 22 20 19 18 15 20 19 17 6 11 10 3 7 9 16 4 4 13 22 25
11 14 16 23 26 28 45 46 22 14 14 11 19 24 31 36 30 21 22 20 17 21 24 31 32 30 22 19 14 17 11 6 8 11 11 9 11 13 3 6 17 23 28
Wind_Direction_500mb
241 239 251 251 260 278 269 280 275 271 258 247 237 239 253 259 268 267 258 279 285 283 287 293 293 297 299 280 269 257 257 264 264 275 281 271 267 266 273 272 281 287 303
262 257 259 259 259 250 250 256 244 239 246 253 263 268 265 270 270 279 273 260 272 273 291 290 296 296 299 291 274 258 251 262 265 271 280 277 276 278 279 281 279 282 283
262 260 244 242 247 253 249 252 252 251 253 259 268 281 276 272 294 289 279 268 257 281 281 290 292 292 297 301 283 269 253 260 262 262 268 269 272 274 274 272 277 273 276
255 262 259 253 242 239 247 245 246 245 248 257 259 259 269 265 276 296 282 265 252 268 274 280 284 290 293 299 281 263 254 254 254 262 262 274 278 273 270 276 278 277 274
224 236 260 266 251 249 252 253 252 254 257 260 256 259 276 282 274 286 269 257 259 260 259 277 273 286 291 298 292 277 268 268 265 264 272 274 276 277 278 281 282 281 276
290 282 252 253 256 254 254 258 259 267 270 264 262 262 281 273 271 274 269 260 262 254 265 256 263 273 287 293 288 295 290 274 270 273 276 278 274 270 267 270 273 272 273
296 302 252 248 254 256 259 261 261 268 283 268 265 268 279 267 271 275 262 258 258 257 257 245 254 260 270 281 269 296 287 281 285 289 293 290 286 283 278 272 271 273 276
290 289 270 244 253 264 264 267 270 272 265 256 261 283 274 275 270 276 259 255 247 240 238 252 275 268 266 261 266 275 282 288 290 296 297 302 307 305 312 293 280 274 277
276 265 266 259 260 270 271 272 270 271 261 248 263 252 275 264 292 302 268 263 241 247 256 249 250 257 262 261 267 280 278 282 276 285 278 279 296 302 305 290 278 273 266
283 287 288 275 276 271 274 277 276 266 252 240 256 251 244 259 291 303 350 279 254 236 244 255 284 273 266 265 267 273 260 265 268 273 265 287 293 295 300 288 285 278 286
292 284 274 275 276 276 279 277 272 263 256 235 244 258 259 267 280 268 283 289 281 271 279 278 287 289 280 268 260 258 260 265 258 267 281 287 295 298 297 288 284 289 289
305 285 273 287 278 280 283 276 283 254 238 242 246 282 273 262 269 252 262 277 276 283 287 290 294 288 256 263 282 296 284 276 278 277 278 286 293 300 299 287 287 290 289
278 274 284 282 276 279 274 267 248 233 259 2 264 290 300 303 288 289 293 295 291 288 289 298 281 270 255 272 283 272 270 267 273 277 281 281 287 290 294 285 289 289 286
315 308 303 286 279 266 276 264 277 247 281 260 234 218 251 250 252 286 298 298 302 295 292 292 298 292 277 286 295 288 273 259 270 273 276 289 294 290 286 282 289 292 291
333 328 325 338 17 73 123 144 308 8 52 304 286 292 293 303 269 276 277 282 291 289 297 288 287 300 298 293 283 283 278 266 261 268 290 301 294 281 277 286 294 292 290
348 4 43 40 63 77 64 99 91 28 4 328 300 275 278 286 292 295 281 290 283 302 310 298 292 291 281 284 281 283 278 287 289 288 291 293 286 282 272 286 291 290 284
2 14 28 44 63 59 71 72 51 339 335 323 299 293 290 296 290 283 281 275 286 296 307 302 303 303 290 287 287 291 295 287 292 288 291 293 281 278 277 280 280 280 280
357 27 48 48 45 25 15 22 17 344 306 301 306 296 286 280 276 281 289 289 287 281 291 297 294 293 296 296 296 293 289 287 286 289 289 289 290 283 280 276 275 277 281
328 0 354 351 144 198 194 198 239 271 296 333 305 298 293 296 294 293 295 293 291 289 298 301 302 306 306 315 316 307 300 297 300 292 289 295 295 278 275 294 285 280 279
267 238 220 208 234 256 275 286 289 296 293 302 319 316 301 299 295 296 296 296 298 301 306 309 312 314 314 314 307 309 305 295 287 285 266 286 285 285 290 300 285 281 279
248 231 222 210 236 274 309 309 313 314 311 304 296 291 301 308 304 304 306 309 316 321 325 317 310 307 309 316 316 317 312 322 283 281 292 292 293 306 295 297 285 275 272
257 227 217 240 285 322 334 327 324 327 323 297 293 301 312 309 305 311 312 319 332 330 325 313 305 305 309 316 318 310 313 323 319 124 308 295 314 310 300 286 292 292 292
256 184 99 314 343 343 344 325 326 320 319 311 306 309 315 312 319 328 322 334 321 327 312 307 310 308 309 309 309 304 302 298 306 317 278 303 324 318 323 335 316 311 310
143 130 67 350 350 327 328 338 335 356 338 335 322 329 326 322 323 321 331 347 329 333 328 322 307 305 304 304 305 299 294 295 292 285 278 298 328 309 357 351 333 311 316
33 29 10 343 342 336 336 345 357 45 329 330 330 324 324 325 330 335 336 340 340 338 318 317 339 360 351 346 339 338 352 328 348 6 356 315 319 337 157 339 325 336 324
41 42 5 330 322 334 342 348 8 354 330 4 357 338 328 326 330 350 359 4 355 5 20 24 9 3 357 359 347 8 8 358 356 2 41 13 25 27 77 11 341 330 331
Wind_Speed_850mb
33 32 34 36 35 36 42 35 36 40 56 55 54 60 54 52 66 56 34 41 47 45 53 57 52 51 47 44 41 43 47 49 51 48 47 39 36 33 29 29 28 28 29
27 31 35 38 39 41 40 44 50 53 43 47 59 61 59 56 48 55 62 47 54 55 63 52 51 50 49 38 34 36 41 43 46 46 48 43 40 39 37 34 35 35 35
29 37 47 48 45 46 46 62 61 54 61 61 76 55 62 61 84 84 81 75 53 58 50 45 48 48 48 37 33 31 32 39 43 46 43 47 49 48 45 43 43 41 41
43 46 50 54 54 55 58 70 70 73 73 69 96 80 85 90 107 102 89 83 75 62 46 48 48 49 41 45 36 32 41 40 40 48 49 43 43 46 47 44 42 43 44
39 46 55 59 57 63 70 68 82 76 80 79 89 92 110 121 98 66 56 60 64 51 44 44 47 43 43 35 24 28 39 43 46 47 44 47 46 43 39 43 39 45 44
23 53 65 67 67 74 76 76 77 82 83 90 98 92 96 82 64 44 46 41 41 45 37 37 46 41 36 34 28 23 27 39 46 48 46 45 43 39 40 42 48 51 51
73 67 59 63 74 76 83 84 85 95 83 81 75 91 80 63 48 52 46 47 43 37 27 41 42 45 38 33 25 24 32 32 32 41 47 52 49 49 51 51 50 53 55
82 88 55 63 70 70 86 99 98 95 82 68 67 43 34 29 30 24 28 30 29 27 35 39 34 38 33 35 21 29 40 43 41 39 36 45 43 44 50 40 43 50 56
85 65 58 58 78 82 86 91 100 98 82 71 42 33 11 16 16 14 14 22 25 33 34 31 39 39 39 46 50 49 41 37 41 41 34 33 43 48 40 37 42 48 55
53 45 45 52 60 65 74 72 75 85 77 56 45 36 51 38 18 16 14 24 30 41 43 38 32 29 36 47 48 49 33 45 37 44 37 49 52 47 42 41 41 48 45
41 40 42 47 56 60 62 64 73 74 67 65 49 36 34 35 27 29 31 26 20 30 36 36 39 41 33 37 45 50 52 52 50 54 58 56 57 55 46 45 41 42 44
25 29 33 45 45 53 56 56 73 69 56 62 45 39 53 32 19 27 34 36 29 26 28 34 34 37 36 40 39 49 44 48 51 46 49 53 54 53 53 47 42 46 49
35 39 40 36 35 38 35 50 45 39 25 8 18 18 18 26 26 30 34 39 40 32 30 34 37 30 26 35 43 33 41 52 45 41 49 51 48 53 59 54 52 47 47
36 34 27 23 21 25 31 34 32 10 15 10 14 13 26 30 20 21 26 28 36 44 42 45 31 32 27 28 38 35 36 46 51 40 42 53 66 63 56 55 56 56 49
35 32 23 12 6 4 7 12 4 1 2 2 7 13 16 13 22 28 36 36 36 47 36 36 42 44 46 46 34 28 30 42 46 44 67 77 81 61 57 54 59 56 45
26 17 13 14 12 11 6 7 8 5 8 8 7 14 21 26 33 34 29 32 33 33 33 40 48 52 46 53 62 71 70 74 81 86 80 64 65 64 60 54 58 56 45
14 10 9 8 8 5 6 4 3 6 11 15 18 22 26 26 29 31 30 40 46 52 53 52 43 36 47 55 61 70 73 64 67 66 68 73 70 68 67 67 60 49 46
13 12 14 16 15 15 17 18 16 11 12 16 21 24 23 22 29 35 38 37 37 35 38 48 59 62 64 65 63 66 69 71 73 71 58 46 44 48 48 39 41 45 40
12 7 6 4 4 7 7 5 7 7 6 11 22 30 34 35 40 44 42 47 50 55 59 63 59 46 59 51 45 44 41 37 37 35 37 32 26 20 23 24 28 30 32
11 9 8 6 9 10 13 16 20 22 21 19 28 34 40 40 43 46 47 52 54 60 63 57 48 45 41 47 45 43 45 40 37 27 25 31 27 24 21 23 20 22 24
15 13 10 16 16 14 19 19 20 23 24 20 29 35 40 42 47 52 49 49 49 45 40 39 43 43 44 45 43 41 38 39 24 19 10 13 15 18 18 19 24 22 20
20 16 20 16 13 19 20 26 29 30 27 26 32 34 32 33 43 45 43 36 34 39 39 34 34 36 38 37 35 36 33 33 24 2 6 8 18 19 14 21 10 16 19
29 15 10 6 18 28 28 35 35 34 29 32 36 41 42 45 39 33 38 23 31 34 30 29 29 33 38 36 38 33 33 26 30 17 18 17 17 12 14 8 12 15 13
30 25 8 13 26 30 35 43 32 17 22 26 33 35 28 33 36 43 32 18 28 23 24 24 29 31 32 34 28 24 29 29 24 14 8 18 10 9 13 10 8 13 20
28 31 22 19 26 31 36 52 19 15 19 19 25 26 25 34 38 30 21 20 21 21 19 22 20 19 18 15 20 19 17 6 11 10 3 7 9 16 4 4 13 22 25
11 14 16 23 26 28 45 46 22 14 14 11 19 24 31 36 30 21 22 20 17 21 24 31 32 30 22 19 14 17 11 6 8 11 11 9 11 13 3 6 17 23 28
Wind_Direction_850mb
241 239 251 251 260 278 269 280 275 271 258 247 237 239 253 259 268 267 258 279 285 283 287 293 293 297 299 280 269 257 257 264 264 275 281 271 267 266 273 272 281 287 303
262 257 259 259 259 250 250 256 244 239 246 253 263 268 265 270 270 279 273 260 272 273 291 290 296 296 299 291 274 258 251 262 265 271 280 277 276 278 279 281 279 282 283
262 260 244 242 247 253 249 252 252 251 253 259 268 281 276 272 294 289 279 268 257 281 281 290 292 292 297 301 283 269 253 260 262 262 268 269 272 274 274 272 277 273 276
255 262 259 253 242 239 247 245 246 245 248 257 259 259 269 265 276 296 282 265 252 268 274 280 284 290 293 299 281 263 254 254 254 262 262 274 278 273 270 276 278 277 274
224 236 260 266 251 249 252 253 252 254 257 260 256 259 276 282 274 286 269 257 259 260 259 277 273 286 291 298 292 277 268 268 265 264 272 274 276 277 278 281 282 281 276
290 282 252 253 256 254 254 258 259 267 270 264 262 262 281 273 271 274 269 260 262 254 265 256 263 273 287 293 288 295 290 274 270 273 276 278 274 270 267 270 273 272 273
296 302 252 248 254 256 259 261 261 268 283 268 265 268 279 267 271 275 262 258 258 257 257 245 254 260 270 281 269 296 287 281 285 289 293 290 286 283 278 272 271 273 276
290 289 270 244 253 264 264 267 270 272 265 256 261 283 274 275 270 276 259 255 247 240 238 252 275 268 266 261 266 275 282 288 290 296 297 302 307 305 312 293 280 274 277
276 265 266 259 260 270 271 272 270 271 261 248 263 252 275 264 292 302 268 263 241 247 256 249 250 257 262 261 267 280 278 282 276 285 278 279 296 302 305 290 278 273 266
283 287 288 275 276 271 274 277 276 266 252 240 256 251 244 259 291 303 350 279 254 236 244 255 284 273 266 265 267 273 260 265 268 273 265 287 293 295 300 288 285 278 286
292 284 274 275 276 276 279 277 272 263 256 235 244 258 259 267 280 268 283 289 281 271 279 278 287 289 280 268 260 258 260 265 258 267 281 287 295 298 297 288 284 289 289
305 285 273 287 278 280 283 276 283 254 238 242 246 282 273 262 269 252 262 277 276 283 287 290 294 288 256 263 282 296 284 276 278 277 278 286 293 300 299 287 287 290 289
278 274 284 282 276 279 274 267 248 233 259 2 264 290 300 303 288 289 293 295 291 288 289 298 281 270 255 272 283 272 270 267 273 277 281 281 287 290 294 285 289 289 286
315 308 303 286 279 266 276 264 277 247 281 260 234 218 251 250 252 286 298 298 302 295 292 292 298 292 277 286 295 288 273 259 270 273 276 289 294 290 286 282 289 292 291
333 328 325 338 17 73 123 144 308 8 52 304 286 292 293 303 269 276 277 282 291 289 297 288 287 300 298 293 283 283 278 266 261 268 290 301 294 281 277 286 294 292 290
348 4 43 40 63 77 64 99 91 28 4 328 300 275 278 286 292 295 281 290 283 302 310 298 292 291 281 284 281 283 278 287 289 288 291 293 286 282 272 286 291 290 284
2 14 28 44 63 59 71 72 51 339 335 323 299 293 290 296 290 283 281 275 286 296 307 302 303 303 290 287 287 291 295 287 292 288 291 293 281 278 277 280 280 280 280
357 27 48 48 45 25 15 22 17 344 306 301 306 296 286 280 276 281 289 289 287 281 291 297 294 293 296 296 296 293 289 287 286 289 289 289 290 283 280 276 275 277 281
328 0 354 351 144 198 194 198 239 271 296 333 305 298 293 296 294 293 295 293 291 289 298 301 302 306 306 315 316 307 300 297 300 292 289 295 295 278 275 294 285 280 279
267 238 220 208 234 256 275 286 289 296 293 302 319 316 301 299 295 296 296 296 298 301 306 309 312 314 314 314 307 309 305 295 287 285 266 286 285 285 290 300 285 281 279
248 231 222 210 236 274 309 309 313 314 311 304 296 291 301 308 304 304 306 309 316 321 325 317 310 307 309 316 316 317 312 322 283 281 292 292 293 306 295 297 285 275 272
257 227 217 240 285 322 334 327 324 327 323 297 293 301 312 309 305 311 312 319 332 330 325 313 305 305 309 316 318 310 313 323 319 124 308 295 314 310 300 286 292 292 292
256 184 99 314 343 343 344 325 326 320 319 311 306 309 315 312 319 328 322 334 321 327 312 307 310 308 309 309 309 304 302 298 306 317 278 303 324 318 323 335 316 311 310
143 130 67 350 350 327 328 338 335 356 338 335 322 329 326 322 323 321 331 347 329 333 328 322 307 305 304 304 305 299 294 295 292 285 278 298 328 309 357 351 333 311 316
33 29 10 343 342 336 336 345 357 45 329 330 330 324 324 325 330 335 336 340 340 338 318 317 339 360 351 346 339 338 352 328 348 6 356 315 319 337 157 339 325 336 324
41 42 5 330 322 334 342 348 8 354 330 4 357 338 328 326 330 350 359 4 355 5 20 24 9 3 357 359 347 8 8 358 356 2 41 13 25 27 77 11 341 330 331